This is the latest recevied weather packets stored in our database for station/object N7CEE. If no packets are shown the sender has not sent any weather packets the latest 1 day(s).
| Time | Temp. | Humidity | Pressure | Rain* | Wind** | Luminosity | Snow |
|---|---|---|---|---|---|---|---|
| 1778035314 | 3.33° C | 96% | 1019.5 hPa | 0 mm | - | 0 W/m² | - |
| 1778035010 | 3.33° C | 96% | 1019.4 hPa | 0 mm | - | 0 W/m² | - |
| 1778034708 | 3.33° C | 96% | 1019.3 hPa | 0 mm | - | 0 W/m² | - |
| 1778034405 | 3.33° C | 96% | 1019 hPa | 0 mm | - | 0 W/m² | - |
| 1778034102 | 3.33° C | 96% | 1019.2 hPa | 0 mm | - | 1 W/m² | - |
| 1778033800 | 3.33° C | 96% | 1019.3 hPa | 0 mm | - | 1 W/m² | - |
| 1778033497 | 3.33° C | 96% | 1018.8 hPa | 0 mm | - | 2 W/m² | - |
| 1778033194 | 3.33° C | 96% | 1019 hPa | 0 mm | - | 3 W/m² | - |
| 1778032589 | 3.33° C | 95% | 1018.9 hPa | 0 mm | - | 6 W/m² | - |
| 1778032286 | 3.33° C | 95% | 1018.8 hPa | 0 mm | - | 8 W/m² | - |
| 1778031678 | 3.33° C | 94% | 1018.9 hPa | 0 mm | - | 16 W/m² | - |
| 1778030770 | 3.33° C | 94% | 1018.8 hPa | 0 mm | - | 28 W/m² | - |
| 1778030466 | 3.33° C | 94% | 1018.8 hPa | 0 mm | - | 30 W/m² | - |
| 1778029860 | 3.33° C | 94% | 1019 hPa | 0 mm | - | 30 W/m² | - |
| 1778029554 | 3.33° C | 94% | 1018.7 hPa | 0 mm | - | 34 W/m² | - |
| 1778029250 | 3.33° C | 94% | 1018.7 hPa | 0 mm | - | 37 W/m² | - |
| 1778028947 | 3.33° C | 93% | 1018.9 hPa | 0 mm | - | 39 W/m² | - |
| 1778028643 | 2.78° C | 93% | 1018.9 hPa | 0 mm | - | 38 W/m² | - |
| 1778028341 | 2.78° C | 93% | 1018.9 hPa | 0 mm | - | 39 W/m² | - |
| 1778027734 | 3.33° C | 93% | 1019.2 hPa | 0 mm | - | 32 W/m² | - |
| 1778027430 | 3.33° C | 92% | 1018.9 hPa | 0 mm | - | 31 W/m² | - |
| 1778026822 | 3.33° C | 91% | 1018.9 hPa | 1.78 mm | - | 43 W/m² | - |
| 1778026216 | 3.33° C | 91% | 1018.7 hPa | 0 mm | - | 31 W/m² | - |
| 1778025914 | 3.33° C | 91% | 1018.9 hPa | 0 mm | - | 55 W/m² | - |
| 1778025611 | 3.33° C | 91% | 1018.8 hPa | 1.27 mm | - | 66 W/m² | - |
* Rain latest hour (hover to see other rain measurements)
** Current wind speed in m/s (hover to see current wind gust speed)